| time (UTC) | temp F | wind direction | speed MPH | gust MPH | rain 1hr in | rain 24hr in | rain mn in | humidity % | barometer mb |
| 20260831103004 | 82 | 202 | 2.0 | 5.0 | 0.00 | 0.00 | 0.00 | 31 | 1002.1 |
| 20260831101542 | 83 | 202 | 2.0 | 7.0 | 0.00 | 0.00 | 0.00 | 30 | 1002.2 |
| 20260831100038 | 83 | 202 | 3.0 | 8.0 | 0.00 | 0.00 | 0.00 | 30 | 1002.1 |
| 20260831094537 | 84 | 196 | 4.0 | 7.0 | 0.00 | 0.00 | 0.00 | 29 | 1002.1 |
| 20260831093036 | 84 | 196 | 0.0 | 6.0 | 0.00 | 0.00 | 0.00 | 29 | 1002.0 |
| 20260831091538 | 84 | 196 | 3.0 | 8.0 | 0.00 | 0.00 | 0.00 | 28 | 1001.9 |
| 20260831090036 | 84 | 196 | 0.0 | 4.0 | 0.00 | 0.00 | 0.00 | 29 | 1001.7 |
| 20260831084536 | 84 | 195 | 0.0 | 5.0 | 0.00 | 0.00 | 0.00 | 29 | 1001.6 |
| 20260831083034 | 84 | 195 | 0.0 | 3.0 | 0.00 | 0.00 | 0.00 | 29 | 1001.7 |
| 20260831081535 | 84 | 196 | 0.0 | 3.0 | 0.00 | 0.00 | 0.00 | 29 | 1001.7 |
| 20260831080034 | 84 | 196 | 0.0 | 2.0 | 0.00 | 0.00 | 0.00 | 28 | 1001.9 |
| 20260831074528 | 85 | 195 | 0.0 | 1.0 | 0.00 | 0.00 | 0.00 | 27 | 1002.0 |
| 20260831073026 | 85 | 195 | 0.0 | 6.0 | 0.00 | 0.00 | 0.00 | 27 | 1002.0 |
| 20260831071523 | 86 | 195 | 0.0 | 5.0 | 0.00 | 0.00 | 0.00 | 27 | 1002.3 |
| 20260831064556 | 87 | 196 | 2.0 | 7.0 | 0.00 | 0.00 | 0.00 | 26 | 1002.2 |
| 20260831063054 | 87 | 198 | 1.0 | 5.0 | 0.00 | 0.00 | 0.00 | 25 | 1002.2 |
| 20260831061523 | 87 | 199 | 0.0 | 5.0 | 0.00 | 0.00 | 0.00 | 24 | 1002.3 |
| 20260831060020 | 87 | 200 | 1.0 | 3.0 | 0.00 | 0.00 | 0.00 | 24 | 1002.3 |
| 20260831054519 | 87 | 199 | 1.0 | 6.0 | 0.00 | 0.00 | 0.00 | 23 | 1002.3 |
| 20260831053020 | 87 | 199 | 0.0 | 2.0 | 0.00 | 0.00 | 0.00 | 24 | 1002.3 |
| 20260831051532 | 88 | 199 | 0.0 | 4.0 | 0.00 | 0.00 | 0.00 | 24 | 1002.2 |
| 20260831050017 | 89 | 200 | 0.0 | 0.0 | 0.00 | 0.00 | 0.00 | 24 | 1002.1 |
| 20260831044522 | 89 | 200 | 0.0 | 0.0 | 0.00 | 0.00 | 0.00 | 24 | 1002.0 |
| 20260831043016 | 89 | 200 | 0.0 | 0.0 | 0.00 | 0.00 | 0.00 | 24 | 1002.0 |
| 20260831041555 | 90 | 199 | 0.0 | 0.0 | 0.00 | 0.00 | 0.00 | 23 | 1001.9 |
| 20260831040032 | 90 | 200 | 0.0 | 0.0 | 0.00 | 0.00 | 0.00 | 22 | 1001.9 |
| 20260831034530 | 91 | 200 | 0.0 | 0.0 | 0.00 | 0.00 | 0.00 | 22 | 1001.8 |
| 20260831033055 | 92 | 200 | 0.0 | 0.0 | 0.00 | 0.00 | 0.00 | 21 | 1001.6 |
| 20260831031529 | 92 | 200 | 0.0 | 0.0 | 0.00 | 0.00 | 0.00 | 20 | 1001.5 |
| 20260831024600 | 93 | 200 | 0.0 | 0.0 | 0.00 | 0.00 | 0.00 | 19 | 1001.0 |
| 20260831023100 | 94 | 200 | 0.0 | 3.0 | 0.00 | 0.00 | 0.00 | 19 | 1000.8 |
| 20260831021600 | 94 | 200 | 0.0 | 2.0 | 0.00 | 0.00 | 0.00 | 18 | 1000.7 |
| 20260831020111 | 95 | 200 | 2.0 | 6.0 | 0.00 | 0.00 | 0.00 | 18 | 1000.6 |
| 20260831014559 | 95 | 199 | 1.0 | 6.0 | 0.00 | 0.00 | 0.00 | 18 | 1000.5 |
| 20260831013103 | 95 | 199 | 2.0 | 7.0 | 0.00 | 0.00 | 0.00 | 18 | 1000.4 |
| 20260831011558 | 96 | 199 | 1.0 | 4.0 | 0.00 | 0.00 | 0.00 | 18 | 1000.4 |
| 20260831010057 | 96 | 200 | 0.0 | 3.0 | 0.00 | 0.00 | 0.00 | 17 | 1000.3 |
| 20260831004559 | 97 | 200 | 0.0 | 6.0 | 0.00 | 0.00 | 0.00 | 17 | 1000.3 |
| 20260831003056 | 97 | 201 | 2.0 | 10.0 | 0.00 | 0.00 | 0.00 | 17 | 1000.3 |
| 20260831001555 | 97 | 202 | 0.0 | 5.0 | 0.00 | 0.00 | 0.00 | 17 | 1000.4 |
| 20260831000059 | 97 | 202 | 0.0 | 6.0 | 0.00 | 0.00 | 0.00 | 17 | 1000.3 |
| 20260830234553 | 98 | 202 | 2.0 | 6.0 | 0.00 | 0.00 | 0.00 | 17 | 1000.4 |
| 20260830233051 | 99 | 205 | 4.0 | 8.0 | 0.00 | 0.00 | 0.00 | 16 | 1000.6 |
| 20260830231551 | 99 | 218 | 0.0 | 8.0 | 0.00 | 0.00 | 0.00 | 17 | 1000.7 |
| 20260830230049 | 99 | 221 | 0.0 | 8.0 | 0.00 | 0.00 | 0.00 | 17 | 1000.8 |
| 20260830224548 | 99 | 229 | 2.0 | 6.0 | 0.00 | 0.00 | 0.00 | 17 | 1000.9 |
| 20260830223046 | 100 | 230 | 0.0 | 3.0 | 0.00 | 0.00 | 0.00 | 17 | 1001.0 |
| 20260830221545 | 100 | 232 | 4.0 | 10.0 | 0.00 | 0.00 | 0.00 | 17 | 1001.3 |
| 20260830220048 | 101 | 236 | 0.0 | 9.0 | 0.00 | 0.00 | 0.00 | 17 | 1001.6 |
| 20260830214545 | 101 | 232 | 0.0 | 6.0 | 0.00 | 0.00 | 0.00 | 18 | 1001.8 |
| 20260830213039 | 101 | 232 | 0.0 | 6.0 | 0.00 | 0.00 | 0.00 | 18 | 1002.0 |
| 20260830211535 | 100 | 232 | 0.0 | 4.0 | 0.00 | 0.00 | 0.00 | 19 | 1002.3 |
| 20260830210031 | 98 | 229 | 1.0 | 6.0 | 0.00 | 0.00 | 0.00 | 19 | 1002.5 |
| 20260830204528 | 98 | 230 | 2.0 | 6.0 | 0.00 | 0.00 | 0.00 | 19 | 1002.8 |
| 20260830203026 | 98 | 225 | 2.0 | 6.0 | 0.00 | 0.00 | 0.00 | 20 | 1003.0 |
| 20260830201524 | 98 | 210 | 2.0 | 5.0 | 0.00 | 0.00 | 0.00 | 21 | 1003.3 |
| 20260830200021 | 96 | 210 | 2.0 | 8.0 | 0.00 | 0.00 | 0.00 | 22 | 1003.6 |
| 20260830194518 | 95 | 209 | 0.0 | 7.0 | 0.00 | 0.00 | 0.00 | 23 | 1003.9 |
| 20260830193016 | 94 | 198 | 2.0 | 7.0 | 0.00 | 0.00 | 0.00 | 23 | 1004.1 |
| 20260830191517 | 93 | 175 | 0.0 | 9.0 | 0.00 | 0.00 | 0.00 | 23 | 1004.2 |
| 20260830190014 | 94 | 204 | 1.0 | 8.0 | 0.00 | 0.00 | 0.00 | 24 | 1004.4 |
| 20260830184511 | 93 | 186 | 2.0 | 7.0 | 0.00 | 0.00 | 0.00 | 25 | 1004.7 |
| 20260830183007 | 92 | 205 | 1.0 | 8.0 | 0.00 | 0.00 | 0.00 | 26 | 1004.8 |
| 20260830181503 | 91 | 201 | 4.0 | 7.0 | 0.00 | 0.00 | 0.00 | 27 | 1005.1 |
| 20260830180110 | 91 | 203 | 1.0 | 10.0 | 0.00 | 0.00 | 0.00 | 27 | 1005.2 |
| 20260830174607 | 90 | 217 | 1.0 | 8.0 | 0.00 | 0.00 | 0.00 | 27 | 1005.6 |
| 20260830173114 | 90 | 194 | 4.0 | 8.0 | 0.00 | 0.00 | 0.00 | 28 | 1005.7 |
| 20260830171553 | 89 | 190 | 2.0 | 7.0 | 0.00 | 0.00 | 0.00 | 27 | 1005.7 |